Monterey, CA

4:47 AM PDT on April 30, 2017 (GMT -0700)
Monterey Peninsula

Weather History for KMRY - September, 2014

Change the Weather History Date:

Saturday, September 13, 2014

  Actual Average Record
Temperature  
Mean Temperature 64 °F 62 °F  
Max Temperature 71 °F 70 °F 84 °F (2003)
Min Temperature 57 °F 53 °F 52 °F (2010)
Degree Days  
Heating Degree Days 1    
Month to date heating degree days 28  
Since 1 July heating degree days 126  
Cooling Degree Days 0    
Month to date cooling degree days 1  
Year to date cooling degree days 77  
Growing Degree Days 14 (Base 50)    
Moisture  
Dew Point 56 °F    
Average Humidity 77    
Maximum Humidity 93    
Minimum Humidity 61    
Precipitation  
Precipitation 0.00 in - 0.01 in (2013)
Month to date precipitation 0.00  
Year to date precipitation 7.44  
Since 1 July precipitation 0.05  
Sea Level Pressure  
Sea Level Pressure 29.87 in    
Wind  
Wind Speed 4 mph (West)    
Max Wind Speed 14 mph    
Max Gust Speed 25 mph    
Visibility 8 miles    
Events      
T = Trace of Precipitation, MM = Missing Value Source: NWS Daily Summary

Daily Weather History Graph

Daily Weather History Graph

Search for Another Location

Airport or City:

Trip Planner

Search our weather history database for the weather conditions in past years. The results will help you decide how hot, cold, wet, or windy it might be!

Date:

Astronomy

Sep. 13, 2014 Rise Set
Actual Time 6:48 AM PDT 7:17 PM PDT
Civil Twilight 6:22 AM PDT 7:43 PM PDT
Nautical Twilight 5:51 AM PDT 8:13 PM PDT
Astronomical Twilight 5:20 AM PDT 8:45 PM PDT
Moon 10:35 PM PDT (9/13) 11:52 AM PDT (9/13)
Length of Visible Light 13h 21m
Length of Day
12h 29m
Waning Gibbous, 73% of the Moon is Illuminated
Sep 13
Waning Gibbous
Sep 15
Last Quarter
Sep 23
New
Oct 1
First Quarter
Oct 8
Full

Hourly Weather History & Observations

Time (PDT) Temp. Dew Point Humidity Pressure Visibility Wind Dir Wind Speed Gust Speed Precip Events Conditions
12:54 AM 60.1 °F 57.0 °F 90% 29.90 in 9.0 mi Calm Calm - N/A   Overcast
1:10 AM 60.8 °F 57.2 °F 88% 29.87 in 9.0 mi Calm Calm - N/A   Overcast
1:54 AM 60.1 °F 57.0 °F 90% 29.90 in 8.0 mi Calm Calm - N/A   Overcast
2:54 AM 59.0 °F 57.0 °F 93% 29.89 in 7.0 mi SSW 3.5 mph - N/A   Overcast
3:54 AM 59.0 °F 55.9 °F 90% 29.89 in 9.0 mi Calm Calm - N/A   Overcast
4:54 AM 57.9 °F 55.0 °F 90% 29.88 in 10.0 mi East 4.6 mph - N/A   Overcast
5:54 AM 57.0 °F 55.0 °F 93% 29.89 in 5.0 mi Calm Calm - N/A   Overcast
6:23 AM 57.2 °F 55.4 °F 94% 29.86 in 2.5 mi East 3.5 mph - N/A   Overcast
6:39 AM 57.2 °F 55.4 °F 94% 29.86 in 3.0 mi East 4.6 mph - N/A   Overcast
6:54 AM 57.9 °F 55.0 °F 90% 29.89 in 5.0 mi East 6.9 mph - N/A   Overcast
7:16 AM 57.2 °F 55.4 °F 94% 29.86 in 2.0 mi East 5.8 mph - N/A   Overcast
7:29 AM 57.2 °F 55.4 °F 94% 29.86 in 5.0 mi East 4.6 mph - N/A   Overcast
7:54 AM 57.9 °F 55.0 °F 90% 29.90 in 9.0 mi East 3.5 mph - N/A   Overcast
8:15 AM 57.2 °F 55.4 °F 94% 29.87 in 2.5 mi Calm Calm - N/A   Overcast
8:27 AM 59.0 °F 55.4 °F 88% 29.87 in 3.0 mi Calm Calm - N/A   Overcast
8:54 AM 60.1 °F 55.9 °F 86% 29.91 in 3.0 mi Calm Calm - N/A   Overcast
9:42 AM 60.8 °F 55.4 °F 82% 29.87 in 10.0 mi Calm Calm - N/A   Overcast
9:54 AM 61.0 °F 55.9 °F 83% 29.91 in 5.0 mi Calm Calm - N/A   Haze
10:23 AM 62.6 °F 55.4 °F 77% 29.87 in 8.0 mi Variable 4.6 mph - N/A   Scattered Clouds
10:54 AM 64.9 °F 55.9 °F 73% 29.89 in 9.0 mi WNW 3.5 mph - N/A   Partly Cloudy
11:54 AM 64.9 °F 55.9 °F 73% 29.90 in 7.0 mi West 9.2 mph - N/A   Clear
12:54 PM 64.9 °F 57.0 °F 75% 29.88 in 10.0 mi WNW 6.9 mph 16.1 mph N/A   Clear
1:54 PM 68.0 °F 57.0 °F 68% 29.87 in 10.0 mi NW 11.5 mph - N/A   Clear
2:54 PM 70.0 °F 55.9 °F 61% 29.87 in 10.0 mi NW 9.2 mph - N/A   Clear
3:54 PM 69.1 °F 55.9 °F 63% 29.86 in 10.0 mi West 5.8 mph - N/A   Clear
4:51 PM 64.4 °F 55.4 °F 73% 29.83 in 10.0 mi West 9.2 mph - N/A   Mostly Cloudy
4:54 PM 66.0 °F 55.9 °F 70% 29.87 in 10.0 mi West 9.2 mph - N/A   Mostly Cloudy
5:14 PM 64.4 °F 55.4 °F 73% 29.84 in 10.0 mi West 8.1 mph - N/A   Scattered Clouds
5:43 PM 64.4 °F 57.2 °F 77% 29.84 in 10.0 mi WSW 9.2 mph - N/A   Mostly Cloudy
5:54 PM 64.0 °F 57.0 °F 78% 29.88 in 10.0 mi West 9.2 mph - N/A   Overcast
6:54 PM 63.0 °F 55.9 °F 78% 29.87 in 10.0 mi WSW 3.5 mph - N/A   Overcast
7:54 PM 62.1 °F 55.9 °F 80% 29.87 in 10.0 mi WSW 4.6 mph - N/A   Mostly Cloudy
8:11 PM 62.6 °F 55.4 °F 77% 29.84 in 10.0 mi WSW 5.8 mph - N/A   Partly Cloudy
8:37 PM 62.6 °F 55.4 °F 77% 29.84 in 10.0 mi WSW 5.8 mph - N/A   Scattered Clouds
8:46 PM 60.8 °F 55.4 °F 82% 29.84 in 10.0 mi WSW 4.6 mph - N/A   Mostly Cloudy
8:54 PM 62.1 °F 55.9 °F 80% 29.88 in 10.0 mi WSW 5.8 mph - N/A   Mostly Cloudy
9:54 PM 61.0 °F 55.9 °F 83% 29.88 in 10.0 mi Calm Calm - N/A   Overcast
10:54 PM 61.0 °F 55.9 °F 83% 29.88 in 10.0 mi Calm Calm - N/A   Overcast
11:54 PM 59.0 °F 55.0 °F 87% 29.87 in 10.0 mi Calm Calm - N/A   Overcast